Location: Kawakawa
(35.3830°S, 174.0670°E)
Time: 22:15:56
(UTC+12:00)

Cosmos 2263 Rocket - Pass Details

Date: 24 January 2019
Orbit: 825 x 847 km, 71.0° (Epoch: 21 April)

Event Time Altitude Azimuth Distance (km) Brightness Sun altitude
Rises 23:22:43 0° 216° (SW) 3,414 6.7 -26.9°
Reaches altitude 10° 23:25:32 10° 228° (SW) 2,475 5.6 -27.3°
Maximum altitude 23:30:07 26° 282° (WNW) 1,624 3.8 -27.8°
Enters shadow 23:31:40 23° 306° (NW) 1,741 3.8 -28.0°
